This demonstration page uses our WeatherBlox Daily Observations layout. Learn more.

Left ArrowRight Arrow

36.19886, -115.1175

Hourly Observations for May 10, 2020

Temp ( °F °C ) Dew Point ( °F °C ) Humidity (%) Winds ( mph kmh ) Pressure ( in mb ) Visibility ( mi km ) Precip ( " mm )
12:53 am 00:53 Clear 79 26.1 27 -2.8 15 15 N 3 6 29.81 1009 10 16 N/A
1:53 am 01:53 Clear 78 25.6 25 -3.9 14 14 NNE 3 6 29.80 1009 10 16 N/A
2:53 am 02:53 Clear 77 25 25 -3.9 14 14 W 3 6 29.81 1010 10 16 N/A
3:53 am 03:53 Clear 75 23.9 26 -3.3 16 16 WNW 8 13 29.82 1010 10 16 N/A
4:53 am 04:53 Clear 74 23.3 27 -2.8 17 17 NNW 6 9 29.82 1010 10 16 N/A
5:53 am 05:53 Sunny 73 22.8 30 -1.1 20 20 WNW 7 11 29.84 1011 10 16 N/A
6:53 am 06:53 Sunny 75 23.9 32 undefined 21 21 N N/A 29.86 1011 10 16 N/A
7:53 am 07:53 Sunny 80 26.7 31 -0.6 17 17 N N/A 29.88 1012 10 16 N/A
8:53 am 08:53 Mostly Sunny 87 30.6 29 -1.7 12 12 N 7 11 29.86 1011 10 16 N/A
9:53 am 09:53 Sunny 88 31.1 31 -0.6 13 13 ESE 5 7 29.88 1012 10 16 N/A
10:53 am 10:53 Sunny 91 32.8 33 0.6 13 13 ESE 8 13 29.87 1011 10 16 N/A
11:53 am 11:53 Sunny 95 35 33 0.6 11 11 N N/A 29.84 1011 10 16 N/A
12:53 pm 12:53 Sunny 96 35.6 33 0.6 11 11 W 5 7 29.81 1010 10 16 N/A
1:53 pm 13:53 Sunny 98 36.7 31 -0.6 9 9 SSW 6 9 29.78 1009 10 16 N/A
2:53 pm 14:53 Sunny 99 37.2 33 0.6 10 10 WSW 16 26 29.75 1007 10 16 N/A
3:53 pm 15:53 Sunny 100 37.8 31 -0.6 9 9 WSW 23 37 29.72 1006 10 16 N/A
4:53 pm 16:53 Sunny 99 37.2 31 -0.6 9 9 WSW 17 28 29.72 1006 10 16 N/A
5:53 pm 17:53 Sunny 97 36.1 34 1.1 11 11 SW 18 30 29.71 1006 10 16 N/A
6:53 pm 18:53 Sunny 95 35 34 1.1 12 12 SSW 16 26 29.71 1006 10 16 N/A
7:53 pm 19:53 Clear 92 33.3 38 3.3 15 15 SSW 15 24 29.72 1006 10 16 N/A
8:53 pm 20:53 Clear 90 32.2 37 2.8 15 15 S 9 15 29.73 1007 10 16 N/A
9:53 pm 21:53 Clear 89 31.7 28 -2.2 11 11 WSW 14 22 29.76 1008 10 16 N/A
10:53 pm 22:53 Clear 88 31.1 26 -3.3 10 10 SW 15 24 29.75 1008 10 16 N/A
11:53 pm 23:53 Clear 86 30 25 -3.9 11 11 SW 13 20 29.76 1008 10 16 N/A

Powered by AerisWeather